Year,Month,Day,Hour,Minute,Value (Times are PST for barometer in hPa)
2011,09,29,00,00,1019.51
2011,09,29,00,01,1019.54
2011,09,29,00,02,1019.50
2011,09,29,00,03,1019.40
2011,09,29,00,04,1019.44
2011,09,29,00,05,1019.47
2011,09,29,00,06,1019.47
2011,09,29,00,07,1019.47
2011,09,29,00,08,1019.44
2011,09,29,00,09,1019.40
2011,09,29,00,10,1019.44
2011,09,29,00,11,1019.40
2011,09,29,00,12,1019.39
2011,09,29,00,13,1019.34
2011,09,29,00,14,1019.37
2011,09,29,00,15,1019.34
2011,09,29,00,16,1019.34
2011,09,29,00,17,1019.37
2011,09,29,00,18,1019.37
2011,09,29,00,19,1019.34
2011,09,29,00,20,1019.37
2011,09,29,00,21,1019.33
2011,09,29,00,22,1019.28
2011,09,29,00,23,1019.36
2011,09,29,00,24,1019.30
2011,09,29,00,25,1019.30
2011,09,29,00,26,1019.30
2011,09,29,00,27,1019.27
2011,09,29,00,28,1019.30
2011,09,29,00,29,1019.30
2011,09,29,00,30,1019.30
2011,09,29,00,31,1019.27
2011,09,29,00,32,1019.27
2011,09,29,00,33,1019.27
2011,09,29,00,34,1019.29
2011,09,29,00,35,1019.24
2011,09,29,00,36,1019.27
2011,09,29,00,37,1019.24
2011,09,29,00,38,1019.24
2011,09,29,00,39,1019.24
2011,09,29,00,40,1019.24
2011,09,29,00,41,1019.20
2011,09,29,00,42,1019.24
2011,09,29,00,43,1019.17
2011,09,29,00,44,1019.17
2011,09,29,00,45,1019.20
2011,09,29,00,46,1019.20
2011,09,29,00,47,1019.17
2011,09,29,00,48,1019.13
2011,09,29,00,49,1019.10
2011,09,29,00,50,1019.10
2011,09,29,00,51,1019.10
2011,09,29,00,52,1019.10
2011,09,29,00,53,1019.10
2011,09,29,00,54,1019.13
2011,09,29,00,55,1019.10
2011,09,29,00,56,1019.06
2011,09,29,00,57,1019.00
2011,09,29,00,58,1018.96
2011,09,29,00,59,1018.93
2011,09,29,01,00,1018.92
2011,09,29,01,01,1018.84
2011,09,29,01,02,1018.93
2011,09,29,01,03,1018.90
2011,09,29,01,04,1018.86
2011,09,29,01,05,1018.86
2011,09,29,01,06,1018.86
2011,09,29,01,07,1018.86
2011,09,29,01,08,1018.86
2011,09,29,01,09,1018.86
2011,09,29,01,10,1018.83
2011,09,29,01,11,1018.83
2011,09,29,01,12,1018.86
2011,09,29,01,13,1018.85
2011,09,29,01,14,1018.80
2011,09,29,01,15,1018.76
2011,09,29,01,16,1018.73
2011,09,29,01,17,1018.73
2011,09,29,01,18,1018.73
2011,09,29,01,19,1018.69
2011,09,29,01,20,1018.72
2011,09,29,01,21,1018.66
2011,09,29,01,22,1018.69
2011,09,29,01,23,1018.69
2011,09,29,01,24,1018.73
2011,09,29,01,25,1018.76
2011,09,29,01,26,1018.76
2011,09,29,01,27,1018.73
2011,09,29,01,28,1018.80
2011,09,29,01,29,1018.73
2011,09,29,01,30,1018.73
2011,09,29,01,31,1018.72
2011,09,29,01,32,1018.65
2011,09,29,01,33,1018.56
2011,09,29,01,34,1018.63
2011,09,29,01,35,1018.66
2011,09,29,01,36,1018.63
2011,09,29,01,37,1018.63
2011,09,29,01,38,1018.63
2011,09,29,01,39,1018.63
2011,09,29,01,40,1018.59
2011,09,29,01,41,1018.59
2011,09,29,01,42,1018.56
2011,09,29,01,43,1018.56
2011,09,29,01,44,1018.56
2011,09,29,01,45,1018.59
2011,09,29,01,46,1018.59
2011,09,29,01,47,1018.59
2011,09,29,01,48,1018.59
2011,09,29,01,49,1018.59
2011,09,29,01,50,1018.63
2011,09,29,01,51,1018.63
2011,09,29,01,52,1018.59
2011,09,29,01,53,1018.62
2011,09,29,01,54,1018.52
2011,09,29,01,55,1018.52
2011,09,29,01,56,1018.56
2011,09,29,01,57,1018.56
2011,09,29,01,58,1018.52
2011,09,29,01,59,1018.49
2011,09,29,02,00,1018.46
2011,09,29,02,01,1018.46
2011,09,29,02,02,1018.46
2011,09,29,02,03,1018.49
2011,09,29,02,04,1018.46
2011,09,29,02,05,1018.48
2011,09,29,02,06,1018.42
2011,09,29,02,07,1018.42
2011,09,29,02,08,1018.42
2011,09,29,02,09,1018.42
2011,09,29,02,10,1018.42
2011,09,29,02,11,1018.39
2011,09,29,02,12,1018.39
2011,09,29,02,13,1018.36
2011,09,29,02,14,1018.39
2011,09,29,02,15,1018.36
2011,09,29,02,16,1018.29
2011,09,29,02,17,1018.29
2011,09,29,02,18,1018.29
2011,09,29,02,19,1018.29
2011,09,29,02,20,1018.25
2011,09,29,02,21,1018.25
2011,09,29,02,22,1018.22
2011,09,29,02,23,1018.18
2011,09,29,02,24,1018.08
2011,09,29,02,25,1018.12
2011,09,29,02,26,1018.08
2011,09,29,02,27,1018.08
2011,09,29,02,28,1018.08
2011,09,29,02,29,1018.05
2011,09,29,02,30,1018.08
2011,09,29,02,31,1018.05
2011,09,29,02,32,1018.05
2011,09,29,02,33,1018.05
2011,09,29,02,34,1018.05
2011,09,29,02,35,1018.02
2011,09,29,02,36,1018.02
2011,09,29,02,37,1018.08
2011,09,29,02,38,1018.05
2011,09,29,02,39,1018.08
2011,09,29,02,40,1018.05
2011,09,29,02,41,1018.08
2011,09,29,02,42,1018.08
2011,09,29,02,43,1018.08
2011,09,29,02,44,1018.12
2011,09,29,02,45,1018.12
2011,09,29,02,46,1018.11
2011,09,29,02,47,1018.05
2011,09,29,02,48,1018.08
2011,09,29,02,49,1018.04
2011,09,29,02,50,1017.99
2011,09,29,02,51,1018.05
2011,09,29,02,52,1018.02
2011,09,29,02,53,1017.98
2011,09,29,02,54,1017.98
2011,09,29,02,55,1017.91
2011,09,29,02,56,1017.91
2011,09,29,02,57,1017.88
2011,09,29,02,58,1017.88
2011,09,29,02,59,1017.88
2011,09,29,03,00,1017.81
2011,09,29,03,01,1017.81
2011,09,29,03,02,1017.85
2011,09,29,03,03,1017.78
2011,09,29,03,04,1017.78
2011,09,29,03,05,1017.78
2011,09,29,03,06,1017.78
2011,09,29,03,07,1017.81
2011,09,29,03,08,1017.85
2011,09,29,03,09,1017.85
2011,09,29,03,10,1017.81
2011,09,29,03,11,1017.81
2011,09,29,03,12,1017.81
2011,09,29,03,13,1017.78
2011,09,29,03,14,1017.75
2011,09,29,03,15,1017.75
2011,09,29,03,16,1017.75
2011,09,29,03,17,1017.71
2011,09,29,03,18,1017.71
2011,09,29,03,19,1017.71
2011,09,29,03,20,1017.71
2011,09,29,03,21,1017.68
2011,09,29,03,22,1017.64
2011,09,29,03,23,1017.68
2011,09,29,03,24,1017.68
2011,09,29,03,25,1017.71
2011,09,29,03,26,1017.72
2011,09,29,03,27,1017.78
2011,09,29,03,28,1017.78
2011,09,29,03,29,1017.71
2011,09,29,03,30,1017.71
2011,09,29,03,31,1017.71
2011,09,29,03,32,1017.71
2011,09,29,03,33,1017.64
2011,09,29,03,34,1017.61
2011,09,29,03,35,1017.58
2011,09,29,03,36,1017.64
2011,09,29,03,37,1017.61
2011,09,29,03,38,1017.68
2011,09,29,03,39,1017.61
2011,09,29,03,40,1017.61
2011,09,29,03,41,1017.61
2011,09,29,03,42,1017.61
2011,09,29,03,43,1017.61
2011,09,29,03,44,1017.61
2011,09,29,03,45,1017.64
2011,09,29,03,46,1017.64
2011,09,29,03,47,1017.61
2011,09,29,03,48,1017.61
2011,09,29,03,49,1017.61
2011,09,29,03,50,1017.61
2011,09,29,03,51,1017.64
2011,09,29,03,52,1017.60
2011,09,29,03,53,1017.54
2011,09,29,03,54,1017.51
2011,09,29,03,55,1017.51
2011,09,29,03,56,1017.47
2011,09,29,03,57,1017.51
2011,09,29,03,58,1017.47
2011,09,29,03,59,1017.51
2011,09,29,04,00,1017.51
2011,09,29,04,01,1017.51
2011,09,29,04,02,1017.54
2011,09,29,04,03,1017.51
2011,09,29,04,04,1017.54
2011,09,29,04,05,1017.54
2011,09,29,04,06,1017.58
2011,09,29,04,07,1017.58
2011,09,29,04,08,1017.58
2011,09,29,04,09,1017.51
2011,09,29,04,10,1017.51
2011,09,29,04,11,1017.44
2011,09,29,04,12,1017.47
2011,09,29,04,13,1017.47
2011,09,29,04,14,1017.47
2011,09,29,04,15,1017.51
2011,09,29,04,16,1017.54
2011,09,29,04,17,1017.54
2011,09,29,04,18,1017.51
2011,09,29,04,19,1017.47
2011,09,29,04,20,1017.47
2011,09,29,04,21,1017.47
2011,09,29,04,22,1017.44
2011,09,29,04,23,1017.44
2011,09,29,04,24,1017.41
2011,09,29,04,25,1017.37
2011,09,29,04,26,1017.37
2011,09,29,04,27,1017.37
2011,09,29,04,28,1017.31
2011,09,29,04,29,1017.27
2011,09,29,04,30,1017.24
2011,09,29,04,31,1017.24
2011,09,29,04,32,1017.24
2011,09,29,04,33,1017.24
2011,09,29,04,34,1017.17
2011,09,29,04,35,1017.17
2011,09,29,04,36,1017.17
2011,09,29,04,37,1017.10
2011,09,29,04,38,1017.07
2011,09,29,04,39,1017.03
2011,09,29,04,40,1017.00
2011,09,29,04,41,1017.00
2011,09,29,04,42,1016.97
2011,09,29,04,43,1016.93
2011,09,29,04,44,1016.87
2011,09,29,04,45,1016.93
2011,09,29,04,46,1016.90
2011,09,29,04,47,1016.90
2011,09,29,04,48,1016.90
2011,09,29,04,49,1016.93
2011,09,29,04,50,1016.90
2011,09,29,04,51,1016.93
2011,09,29,04,52,1016.93
2011,09,29,04,53,1016.97
2011,09,29,04,54,1017.00
2011,09,29,04,55,1017.00
2011,09,29,04,56,1017.03
2011,09,29,04,57,1017.00
2011,09,29,04,58,1016.97
2011,09,29,04,59,1016.93
2011,09,29,05,00,1016.93
2011,09,29,05,01,1016.97
2011,09,29,05,02,1016.90
2011,09,29,05,03,1016.93
2011,09,29,05,04,1016.90
2011,09,29,05,05,1016.90
2011,09,29,05,06,1016.87
2011,09,29,05,07,1016.87
2011,09,29,05,08,1016.90
2011,09,29,05,09,1016.90
2011,09,29,05,10,1016.83
2011,09,29,05,11,1016.80
2011,09,29,05,12,1016.76
2011,09,29,05,13,1016.73
2011,09,29,05,14,1016.70
2011,09,29,05,15,1016.70
2011,09,29,05,16,1016.66
2011,09,29,05,17,1016.63
2011,09,29,05,18,1016.63
2011,09,29,05,19,1016.59
2011,09,29,05,20,1016.63
2011,09,29,05,21,1016.63
2011,09,29,05,22,1016.63
2011,09,29,05,23,1016.59
2011,09,29,05,24,1016.66
2011,09,29,05,25,1016.70
2011,09,29,05,26,1016.73
2011,09,29,05,27,1016.76
2011,09,29,05,28,1016.73
2011,09,29,05,29,1016.73
2011,09,29,05,30,1016.70
2011,09,29,05,31,1016.70
2011,09,29,05,32,1016.66
2011,09,29,05,33,1016.59
2011,09,29,05,34,1016.56
2011,09,29,05,35,1016.56
2011,09,29,05,36,1016.53
2011,09,29,05,37,1016.56
2011,09,29,05,38,1016.56
2011,09,29,05,39,1016.56
2011,09,29,05,40,1016.53
2011,09,29,05,41,1016.56
2011,09,29,05,42,1016.49
2011,09,29,05,43,1016.53
2011,09,29,05,44,1016.46
2011,09,29,05,45,1016.48
2011,09,29,05,46,1016.39
2011,09,29,05,47,1016.42
2011,09,29,05,48,1016.39
2011,09,29,05,49,1016.42
2011,09,29,05,50,1016.46
2011,09,29,05,51,1016.46
2011,09,29,05,52,1016.42
2011,09,29,05,53,1016.42
2011,09,29,05,54,1016.42
2011,09,29,05,55,1016.36
2011,09,29,05,56,1016.39
2011,09,29,05,57,1016.39
2011,09,29,05,58,1016.39
2011,09,29,05,59,1016.42
2011,09,29,06,00,1016.42
2011,09,29,06,01,1016.42
2011,09,29,06,02,1016.36
2011,09,29,06,03,1016.36
2011,09,29,06,04,1016.32
2011,09,29,06,05,1016.32
2011,09,29,06,06,1016.32
2011,09,29,06,07,1016.29
2011,09,29,06,08,1016.29
2011,09,29,06,09,1016.32
2011,09,29,06,10,1016.29
2011,09,29,06,11,1016.26
2011,09,29,06,12,1016.29
2011,09,29,06,13,1016.29
2011,09,29,06,14,1016.26
2011,09,29,06,15,1016.22
2011,09,29,06,16,1016.15
2011,09,29,06,17,1016.15
2011,09,29,06,18,1016.15
2011,09,29,06,19,1016.15
2011,09,29,06,20,1016.19
2011,09,29,06,21,1016.19
2011,09,29,06,22,1016.22
2011,09,29,06,23,1016.22
2011,09,29,06,24,1016.26
2011,09,29,06,25,1016.29
2011,09,29,06,26,1016.26
2011,09,29,06,27,1016.22
2011,09,29,06,28,1016.22
2011,09,29,06,29,1016.15
2011,09,29,06,30,1016.19
2011,09,29,06,31,1016.15
2011,09,29,06,32,1016.19
2011,09,29,06,33,1016.15
2011,09,29,06,34,1016.15
2011,09,29,06,35,1016.22
2011,09,29,06,36,1016.22
2011,09,29,06,37,1016.19
2011,09,29,06,38,1016.19
2011,09,29,06,39,1016.19
2011,09,29,06,40,1016.22
2011,09,29,06,41,1016.12
2011,09,29,06,42,1016.15
2011,09,29,06,43,1016.12
2011,09,29,06,44,1016.12
2011,09,29,06,45,1016.05
2011,09,29,06,46,1016.02
2011,09,29,06,47,1016.02
2011,09,29,06,48,1016.02
2011,09,29,06,49,1015.98
2011,09,29,06,50,1015.92
2011,09,29,06,51,1015.95
2011,09,29,06,52,1015.88
2011,09,29,06,53,1015.92
2011,09,29,06,54,1015.95
2011,09,29,06,55,1015.95
2011,09,29,06,56,1015.95
2011,09,29,06,57,1015.92
2011,09,29,06,58,1015.92
2011,09,29,06,59,1015.95
2011,09,29,07,00,1015.95
2011,09,29,07,01,1015.95
2011,09,29,07,02,1015.88
2011,09,29,07,03,1015.88
2011,09,29,07,04,1015.88
2011,09,29,07,05,1015.88
2011,09,29,07,06,1015.88
2011,09,29,07,07,1015.88
2011,09,29,07,08,1015.95
2011,09,29,07,09,1015.92
2011,09,29,07,10,1015.92
